2022/12/19 00:00:00,42.9,-4.1
2022/12/19 00:10:00,42.7,-3.8
2022/12/19 00:20:00,42.5,-4.2
2022/12/19 00:30:00,42.5,-3.9
2022/12/19 00:40:00,42.4,-3.8
2022/12/19 00:50:00,42.3,-3.9
2022/12/19 01:00:00,42.1,-3.9
2022/12/19 01:10:00,41.9,-4.1
2022/12/19 01:20:00,41.8,-4.2
2022/12/19 01:30:00,41.8,-4.8
2022/12/19 01:40:00,41.5,-4.3
2022/12/19 01:50:00,41.4,-4.4
2022/12/19 02:00:00,41.3,-4.1
2022/12/19 02:10:00,41.3,-4.2
2022/12/19 02:20:00,41.3,-4.1
2022/12/19 02:30:00,41.2,-4.2
2022/12/19 02:40:00,41.0,-3.9
2022/12/19 02:50:00,40.8,-4.1
2022/12/19 03:00:00,40.7,-4.2
2022/12/19 03:10:00,40.5,-4.3
2022/12/19 03:20:00,40.7,-4.1
2022/12/19 03:30:00,40.6,-4.3
2022/12/19 03:40:00,40.6,-4.2
2022/12/19 03:50:00,40.4,-4.2
2022/12/19 04:00:00,40.5,-4.5
2022/12/19 04:10:00,40.6,-4.6
2022/12/19 04:20:00,40.5,-4.1
2022/12/19 04:30:00,40.5,-4.0
2022/12/19 04:40:00,40.6,-4.1
2022/12/19 04:50:00,40.7,-4.0
2022/12/19 05:00:00,40.4,-3.9
2022/12/19 05:10:00,40.4,-4.4
2022/12/19 05:20:00,41.0,-3.9
2022/12/19 05:30:00,40.9,-4.1
2022/12/19 05:40:00,41.1,-3.9
2022/12/19 05:50:00,35.4,-4.1
2022/12/19 06:00:00,35.6,-4.0
2022/12/19 06:10:00,35.7,-3.7
2022/12/19 06:20:00,35.6,-4.1
2022/12/19 06:30:00,35.9,-3.9
2022/12/19 06:40:00,36.3,-3.9
2022/12/19 06:50:00,36.6,-4.0
2022/12/19 07:00:00,37.1,-4.0
2022/12/19 07:10:00,37.4,-3.7
2022/12/19 07:20:00,37.5,-3.7
2022/12/19 07:30:00,37.7,-3.8
2022/12/19 07:40:00,37.7,-3.6
2022/12/19 07:50:00,37.5,-3.8
2022/12/19 08:00:00,37.8,-3.5
2022/12/19 08:10:00,37.9,-3.5
2022/12/19 08:20:00,38.5,-3.5
2022/12/19 08:30:00,38.9,-3.3
2022/12/19 08:40:00,39.2,-3.7
2022/12/19 08:50:00,39.3,-3.2
2022/12/19 09:00:00,38.7,-3.3
2022/12/19 09:10:00,38.0,-3.1
2022/12/19 09:20:00,38.5,-3.1
2022/12/19 09:30:00,39.2,-3.2
2022/12/19 09:40:00,39.8,-3.1
2022/12/19 09:50:00,40.5,-2.9
2022/12/19 10:00:00,41.4,-3.1
2022/12/19 10:10:00,42.9,-3.3
2022/12/19 10:20:00,44.0,-3.2
2022/12/19 10:30:00,44.6,-2.8
2022/12/19 10:40:00,44.3,-2.0
2022/12/19 10:50:00,44.2,-2.0
2022/12/19 11:00:00,44.5,-2.2
2022/12/19 11:10:00,44.9,-1.5
2022/12/19 11:20:00,44.8,-1.5
2022/12/19 11:30:00,44.7,-1.8
2022/12/19 11:40:00,44.6,-1.8
2022/12/19 11:50:00,44.6,-1.8
2022/12/19 12:00:00,44.9,-2.1
2022/12/19 12:10:00,45.0,-2.0
2022/12/19 12:20:00,45.0,-1.9
2022/12/19 12:30:00,44.9,-2.0
2022/12/19 12:40:00,45.0,-1.7
2022/12/19 12:50:00,44.8,-1.4
2022/12/19 13:00:00,44.5,-1.3
2022/12/19 13:10:00,44.3,-0.7
2022/12/19 13:20:00,44.4,-1.3
2022/12/19 13:30:00,44.3,-0.7
2022/12/19 13:40:00,44.7,-0.8
2022/12/19 13:50:00,44.7,-1.5
2022/12/19 14:00:00,45.1,-1.4
2022/12/19 14:10:00,45.0,-1.4
2022/12/19 14:20:00,45.1,-1.4
2022/12/19 14:30:00,45.1,-1.4
2022/12/19 14:40:00,45.2,-1.6
2022/12/19 14:50:00,45.7,-1.7
2022/12/19 15:00:00,45.8,-1.5
2022/12/19 15:10:00,46.0,-1.8
2022/12/19 15:20:00,46.1,-2.1
2022/12/19 15:30:00,46.4,-2.3
2022/12/19 15:40:00,46.6,-2.2
2022/12/19 15:50:00,46.7,-2.4
2022/12/19 16:00:00,47.2,-2.6
2022/12/19 16:10:00,47.3,-2.5
2022/12/19 16:20:00,47.4,-2.6
2022/12/19 16:30:00,47.4,-2.8
2022/12/19 16:40:00,47.2,-2.6
2022/12/19 16:50:00,47.1,-2.8
2022/12/19 17:00:00,47.5,-2.8
2022/12/19 17:10:00,47.5,-3.0
2022/12/19 17:20:00,47.4,-2.8
2022/12/19 17:30:00,47.6,-2.8
2022/12/19 17:40:00,47.2,-2.9
2022/12/19 17:50:00,47.2,-3.0
2022/12/19 18:00:00,47.2,-3.0
2022/12/19 18:10:00,47.1,-3.1
2022/12/19 18:20:00,46.9,-3.0
2022/12/19 18:30:00,46.9,-2.7
2022/12/19 18:40:00,46.9,-2.8
2022/12/19 18:50:00,46.8,-3.1
2022/12/19 19:00:00,47.0,-3.2
2022/12/19 19:10:00,46.8,-2.8
2022/12/19 19:20:00,46.6,-2.9
2022/12/19 19:30:00,46.5,-3.1
2022/12/19 19:40:00,46.6,-3.0
2022/12/19 19:50:00,46.5,-2.8
2022/12/19 20:00:00,46.4,-2.9
2022/12/19 20:10:00,46.3,-2.8
2022/12/19 20:20:00,46.1,-3.0
2022/12/19 20:30:00,45.9,-2.8
2022/12/19 20:40:00,45.9,-3.0
2022/12/19 20:50:00,45.9,-3.0
2022/12/19 21:00:00,45.8,-2.8
2022/12/19 21:10:00,45.7,-2.8
2022/12/19 21:20:00,46.0,-2.9
2022/12/19 21:30:00,45.9,-2.2
2022/12/19 21:40:00,45.7,-2.6
2022/12/19 21:50:00,45.3,-2.7
2022/12/19 22:00:00,45.4,-2.8
2022/12/19 22:10:00,45.3,-2.7
2022/12/19 22:20:00,45.3,-2.4
2022/12/19 22:30:00,45.2,-2.8
2022/12/19 22:40:00,45.2,-2.8
2022/12/19 22:50:00,45.2,-2.6
2022/12/19 23:00:00,45.2,-2.9
2022/12/19 23:10:00,45.1,-2.9
2022/12/19 23:20:00,44.9,-2.9
2022/12/19 23:30:00,44.8,-2.9
2022/12/19 23:40:00,44.8,-2.9
2022/12/19 23:50:00,44.8,-3.1
